Regional Weather Roundup
Issued by NWS

Home | Current Version | Previous Version | Text Only | Print | Product List | Glossary Off
Versions: 1 2 3 4 5 6 7 8 9 10 11 12 13 14 15 16 17 18 19 20 21 22 23 24 25 26 27 28 29 30 31 32 33 34 35 36 37 38 39 40 41 42 43 44 45 46 47 48 49 50

000
ASUS43 KLMK 082010
RWRKY
KENTUCKY REGIONAL WEATHER ROUNDUP
NATIONAL WEATHER SERVICE LOUISVILLE KY
300 PM EST MON FEB 08 2016

NOTE "FAIR" INDICATES FEW OR NO CLOUDS BELOW 12,000 FEET
WITH NO SIGNIFICANT WEATHER AND/OR OBSTRUCTIONS TO VISIBILITY.

KYZ001>023-026-027-061>063-070>075-082100-
WESTERN AND SOUTH CENTRAL KENTUCKY

CITY           SKY/WX    TMP DP  RH WIND       PRES   REMARKS
PADUCAH        CLOUDY    36  19  50 NW10G23   29.84R WCI  28
HENDERSON      CLOUDY    30  27  86 W22       29.81S WCI  17
OWENSBORO      LGT SNOW  30  28  93 W14       29.80R VSB 1   WCI  20
HOPKINSVILLE   FLURRIES  32  28  86 W18       29.80R WCI  20
BOWLING GREEN  CLOUDY    37  30  75 W8        29.76S WCI  31
GLASGOW        CLOUDY    33  33 100 W3        29.74F
$$

KYZ024-025-028>034-038-045-046-053-082100-
NORTH CENTRAL KENTUCKY

CITY           SKY/WX    TMP DP  RH WIND       PRES   REMARKS
LOUISVILLE/SDF CLOUDY    38  32  79 W15       29.68F WCI  29
LOUISVILLE/LOU FLURRIES  36  31  82 W10G21    29.69R WCI  28
FORT KNOX      CLOUDY    35  27  70 W18G28    29.69R WCI  25
$$

KYZ035>037-039>044-047>052-055>060-089>105-082100-
NORTHEAST KENTUCKY

CITY           SKY/WX    TMP DP  RH WIND       PRES   REMARKS
LEXINGTON      CLOUDY    38  31  76 W13G20    29.65F WCI  30
COVINGTON      LGT SNOW  34  32  93 NW8       29.63S FOG     WCI  27
FRANKFORT      CLOUDY    36  29  75 NW7       29.66R WCI  30
$$

KYZ054-064>069-076>088-106>120-082100-
SOUTHEAST KENTUCKY

CITY           SKY/WX    TMP DP  RH WIND       PRES   REMARKS
JACKSON        CLOUDY    34  31  88 W14G20    29.65S WCI  25
LONDON         CLOUDY    39  28  64 W16G23    29.68S WCI  30
SOMERSET       CLOUDY    37  27  65 W14       29.71F WCI  29
MIDDLESBORO    CLOUDY    41  32  70 SW6       29.69R
MONTICELLO     CLOUDY    39  27  62 W21G28    29.72S WCI  29
$$




USA.gov is the U.S. government's official web portal to all federal, state and local government web resources and services.